#datetime,building,power
2022-12-03T00:00:00,atd,19.54
2022-12-03T00:01:00,atd,20.81
2022-12-03T00:02:00,atd,22.28
2022-12-03T00:03:00,atd,21.34
2022-12-03T00:04:00,atd,24.77
2022-12-03T00:05:00,atd,21.28
2022-12-03T00:06:00,atd,20.89
2022-12-03T00:07:00,atd,21.03
2022-12-03T00:08:00,atd,20.69
2022-12-03T00:09:00,atd,24.92
2022-12-03T00:10:00,atd,23.35
2022-12-03T00:11:00,atd,27.21
2022-12-03T00:12:00,atd,24.21
2022-12-03T00:13:00,atd,22.36
2022-12-03T00:14:00,atd,20.60
2022-12-03T00:15:00,atd,20.94
2022-12-03T00:16:00,atd,18.42
2022-12-03T00:17:00,atd,31.54
2022-12-03T00:18:00,atd,18.93
2022-12-03T00:19:00,atd,21.12
2022-12-03T00:20:00,atd,17.49
2022-12-03T00:21:00,atd,22.83
2022-12-03T00:22:00,atd,26.12
2022-12-03T00:23:00,atd,22.76
2022-12-03T00:24:00,atd,24.38
2022-12-03T00:25:00,atd,21.45
2022-12-03T00:26:00,atd,21.77
2022-12-03T00:27:00,atd,24.29
2022-12-03T00:28:00,atd,21.94
2022-12-03T00:29:00,atd,25.36
2022-12-03T00:30:00,atd,20.84
2022-12-03T00:31:00,atd,19.54
2022-12-03T00:32:00,atd,18.11
2022-12-03T00:33:00,atd,19.80
2022-12-03T00:34:00,atd,21.35
2022-12-03T00:35:00,atd,18.72
2022-12-03T00:36:00,atd,17.55
2022-12-03T00:37:00,atd,17.75
2022-12-03T00:38:00,atd,28.51
2022-12-03T00:39:00,atd,15.45
2022-12-03T00:40:00,atd,17.08
2022-12-03T00:41:00,atd,20.10
2022-12-03T00:42:00,atd,26.25
2022-12-03T00:43:00,atd,31.27
2022-12-03T00:44:00,atd,29.91
2022-12-03T00:45:00,atd,28.67
2022-12-03T00:46:00,atd,23.77
2022-12-03T00:47:00,atd,31.75
2022-12-03T00:48:00,atd,30.38
2022-12-03T00:49:00,atd,31.61
2022-12-03T00:50:00,atd,32.54
2022-12-03T00:51:00,atd,26.09
2022-12-03T00:52:00,atd,23.73
2022-12-03T00:53:00,atd,19.17
2022-12-03T00:54:00,atd,18.70
2022-12-03T00:55:00,atd,19.07
2022-12-03T00:56:00,atd,22.56
2022-12-03T00:57:00,atd,23.81
2022-12-03T00:58:00,atd,22.89
2022-12-03T00:59:00,atd,22.61
2022-12-03T01:00:00,atd,26.31
2022-12-03T01:01:00,atd,23.69
2022-12-03T01:02:00,atd,24.30
2022-12-03T01:03:00,atd,21.16
2022-12-03T01:04:00,atd,20.37
2022-12-03T01:05:00,atd,21.72
2022-12-03T01:06:00,atd,20.37
2022-12-03T01:07:00,atd,17.50
2022-12-03T01:08:00,atd,20.06
2022-12-03T01:09:00,atd,20.64
2022-12-03T01:10:00,atd,18.46
2022-12-03T01:11:00,atd,19.20
2022-12-03T01:12:00,atd,25.68
2022-12-03T01:13:00,atd,24.60
2022-12-03T01:14:00,atd,24.03
2022-12-03T01:15:00,atd,25.59
2022-12-03T01:16:00,atd,22.47
2022-12-03T01:17:00,atd,32.34
2022-12-03T01:18:00,atd,25.84
2022-12-03T01:19:00,atd,22.24
2022-12-03T01:20:00,atd,27.52
2022-12-03T01:21:00,atd,23.84
2022-12-03T01:22:00,atd,23.96
2022-12-03T01:23:00,atd,21.53
2022-12-03T01:24:00,atd,17.59
2022-12-03T01:25:00,atd,18.02
2022-12-03T01:26:00,atd,17.75
2022-12-03T01:27:00,atd,22.56
2022-12-03T01:28:00,atd,23.09
2022-12-03T01:29:00,atd,24.70
2022-12-03T01:30:00,atd,21.13
2022-12-03T01:31:00,atd,23.69
2022-12-03T01:32:00,atd,19.37
2022-12-03T01:33:00,atd,23.61
2022-12-03T01:34:00,atd,21.98
2022-12-03T01:35:00,atd,19.80
2022-12-03T01:36:00,atd,34.21
2022-12-03T01:37:00,atd,17.77
2022-12-03T01:38:00,atd,20.49
2022-12-03T01:39:00,atd,18.08
2022-12-03T01:40:00,atd,23.35
2022-12-03T01:41:00,atd,19.70
2022-12-03T01:42:00,atd,20.40
2022-12-03T01:43:00,atd,23.77
2022-12-03T01:44:00,atd,24.87
2022-12-03T01:45:00,atd,24.20
2022-12-03T01:46:00,atd,23.35
2022-12-03T01:47:00,atd,23.71
2022-12-03T01:48:00,atd,20.99
2022-12-03T01:49:00,atd,21.44
2022-12-03T01:50:00,atd,22.34
2022-12-03T01:51:00,atd,19.38
2022-12-03T01:52:00,atd,18.69
2022-12-03T01:53:00,atd,21.54
2022-12-03T01:54:00,atd,18.41
2022-12-03T01:55:00,atd,21.85
2022-12-03T01:56:00,atd,16.47
2022-12-03T01:57:00,atd,19.19
2022-12-03T01:58:00,atd,18.47
2022-12-03T01:59:00,atd,19.65
2022-12-03T02:00:00,atd,19.07
2022-12-03T02:01:00,atd,20.35
2022-12-03T02:02:00,atd,25.74
2022-12-03T02:03:00,atd,23.22
2022-12-03T02:04:00,atd,22.30
2022-12-03T02:05:00,atd,21.72
2022-12-03T02:06:00,atd,20.97
2022-12-03T02:07:00,atd,23.69
2022-12-03T02:08:00,atd,25.18
2022-12-03T02:09:00,atd,23.48
2022-12-03T02:10:00,atd,20.11
2022-12-03T02:11:00,atd,23.37
2022-12-03T02:12:00,atd,24.83
2022-12-03T02:13:00,atd,19.68
2022-12-03T02:14:00,atd,22.99
2022-12-03T02:15:00,atd,21.96
2022-12-03T02:16:00,atd,36.87
2022-12-03T02:17:00,atd,19.82
2022-12-03T02:18:00,atd,22.82
2022-12-03T02:19:00,atd,19.13
2022-12-03T02:20:00,atd,18.49
2022-12-03T02:21:00,atd,16.89
2022-12-03T02:22:00,atd,17.12
2022-12-03T02:23:00,atd,16.66
2022-12-03T02:24:00,atd,21.02
2022-12-03T02:25:00,atd,18.56
2022-12-03T02:26:00,atd,17.36
2022-12-03T02:27:00,atd,18.28
2022-12-03T02:28:00,atd,19.85
2022-12-03T02:29:00,atd,19.62
2022-12-03T02:30:00,atd,19.61
2022-12-03T02:31:00,atd,24.61
2022-12-03T02:32:00,atd,24.44
2022-12-03T02:33:00,atd,28.97
2022-12-03T02:34:00,atd,24.11
2022-12-03T02:35:00,atd,25.34
2022-12-03T02:36:00,atd,33.50
2022-12-03T02:37:00,atd,18.29
2022-12-03T02:38:00,atd,17.69
2022-12-03T02:39:00,atd,17.64
2022-12-03T02:40:00,atd,21.12
2022-12-03T02:41:00,atd,20.82
2022-12-03T02:42:00,atd,20.85
2022-12-03T02:43:00,atd,15.40
2022-12-03T02:44:00,atd,16.24
2022-12-03T02:45:00,atd,17.86
2022-12-03T02:46:00,atd,16.49
2022-12-03T02:47:00,atd,24.59
2022-12-03T02:48:00,atd,21.12
2022-12-03T02:49:00,atd,21.14
2022-12-03T02:50:00,atd,20.20
2022-12-03T02:51:00,atd,19.84
2022-12-03T02:52:00,atd,17.32
2022-12-03T02:53:00,atd,20.33
2022-12-03T02:54:00,atd,15.09
2022-12-03T02:55:00,atd,20.74
2022-12-03T02:56:00,atd,23.24
2022-12-03T02:57:00,atd,20.65
2022-12-03T02:58:00,atd,19.24
2022-12-03T02:59:00,atd,19.46
2022-12-03T03:00:00,atd,20.12
2022-12-03T03:01:00,atd,16.24
2022-12-03T03:02:00,atd,19.47
2022-12-03T03:03:00,atd,20.62
2022-12-03T03:04:00,atd,20.07
2022-12-03T03:05:00,atd,19.90
2022-12-03T03:06:00,atd,19.02
2022-12-03T03:07:00,atd,17.12
2022-12-03T03:08:00,atd,16.49
2022-12-03T03:09:00,atd,17.79
2022-12-03T03:10:00,atd,17.32
2022-12-03T03:11:00,atd,18.24
2022-12-03T03:12:00,atd,16.81
2022-12-03T03:13:00,atd,20.82
2022-12-03T03:14:00,atd,18.94
2022-12-03T03:15:00,atd,19.29
2022-12-03T03:16:00,atd,17.72
2022-12-03T03:17:00,atd,29.89
2022-12-03T03:18:00,atd,21.67
2022-12-03T03:19:00,atd,20.82
2022-12-03T03:20:00,atd,24.36
2022-12-03T03:21:00,atd,25.65
2022-12-03T03:22:00,atd,23.25
2022-12-03T03:23:00,atd,21.41
2022-12-03T03:24:00,atd,20.30
2022-12-03T03:25:00,atd,18.40
2022-12-03T03:26:00,atd,17.00
2022-12-03T03:27:00,atd,18.63
2022-12-03T03:28:00,atd,18.69
2022-12-03T03:29:00,atd,20.85
2022-12-03T03:30:00,atd,20.54
2022-12-03T03:31:00,atd,20.56
2022-12-03T03:32:00,atd,18.97
2022-12-03T03:33:00,atd,19.65
2022-12-03T03:34:00,atd,22.02
2022-12-03T03:35:00,atd,21.20
2022-12-03T03:36:00,atd,31.99
2022-12-03T03:37:00,atd,34.25
2022-12-03T03:38:00,atd,32.27
2022-12-03T03:39:00,atd,30.27
2022-12-03T03:40:00,atd,29.83
2022-12-03T03:41:00,atd,18.89
2022-12-03T03:42:00,atd,17.42
2022-12-03T03:43:00,atd,20.64
2022-12-03T03:44:00,atd,21.93
2022-12-03T03:45:00,atd,18.96
2022-12-03T03:46:00,atd,21.49
2022-12-03T03:47:00,atd,19.23
2022-12-03T03:48:00,atd,19.30
2022-12-03T03:49:00,atd,17.46
2022-12-03T03:50:00,atd,20.40
2022-12-03T03:51:00,atd,19.14
2022-12-03T03:52:00,atd,21.18
2022-12-03T03:53:00,atd,20.74
2022-12-03T03:54:00,atd,25.75
2022-12-03T03:55:00,atd,32.23
2022-12-03T03:56:00,atd,28.21
2022-12-03T03:57:00,atd,29.81
2022-12-03T03:58:00,atd,32.16
2022-12-03T03:59:00,atd,20.11
2022-12-03T04:00:00,atd,20.31
2022-12-03T04:01:00,atd,18.35
2022-12-03T04:02:00,atd,19.73
2022-12-03T04:03:00,atd,19.39
2022-12-03T04:04:00,atd,22.49
2022-12-03T04:05:00,atd,19.32
2022-12-03T04:06:00,atd,24.68
2022-12-03T04:07:00,atd,24.53
2022-12-03T04:08:00,atd,26.37
2022-12-03T04:09:00,atd,26.05
2022-12-03T04:10:00,atd,24.34
2022-12-03T04:11:00,atd,24.16
2022-12-03T04:12:00,atd,21.20
2022-12-03T04:13:00,atd,20.54
2022-12-03T04:14:00,atd,19.57
2022-12-03T04:15:00,atd,18.79
2022-12-03T04:16:00,atd,35.03
2022-12-03T04:17:00,atd,20.28
2022-12-03T04:18:00,atd,19.01
2022-12-03T04:19:00,atd,22.42
2022-12-03T04:20:00,atd,21.21
2022-12-03T04:21:00,atd,18.92
2022-12-03T04:22:00,atd,21.36
2022-12-03T04:23:00,atd,22.92
2022-12-03T04:24:00,atd,21.66
2022-12-03T04:25:00,atd,20.77
2022-12-03T04:26:00,atd,20.50
2022-12-03T04:27:00,atd,20.96
2022-12-03T04:28:00,atd,24.79
2022-12-03T04:29:00,atd,20.15
2022-12-03T04:30:00,atd,18.18
2022-12-03T04:31:00,atd,20.60
2022-12-03T04:32:00,atd,18.54
2022-12-03T04:33:00,atd,18.83
2022-12-03T04:34:00,atd,20.41
2022-12-03T04:35:00,atd,22.64
2022-12-03T04:36:00,atd,19.90
2022-12-03T04:37:00,atd,31.39
2022-12-03T04:38:00,atd,21.50
2022-12-03T04:39:00,atd,20.46
2022-12-03T04:40:00,atd,22.50
2022-12-03T04:41:00,atd,23.24
2022-12-03T04:42:00,atd,22.37
2022-12-03T04:43:00,atd,18.32
2022-12-03T04:44:00,atd,20.34
2022-12-03T04:45:00,atd,20.28
2022-12-03T04:46:00,atd,20.18
2022-12-03T04:47:00,atd,19.71
2022-12-03T04:48:00,atd,18.20
2022-12-03T04:49:00,atd,17.06
2022-12-03T04:50:00,atd,15.77
2022-12-03T04:51:00,atd,17.80
2022-12-03T04:52:00,atd,15.21
2022-12-03T04:53:00,atd,14.16
2022-12-03T04:54:00,atd,18.48
2022-12-03T04:55:00,atd,19.82
2022-12-03T04:56:00,atd,20.55
2022-12-03T04:57:00,atd,20.50
2022-12-03T04:58:00,atd,17.80
2022-12-03T04:59:00,atd,19.02
2022-12-03T05:00:00,atd,20.00
2022-12-03T05:01:00,atd,21.57
2022-12-03T05:02:00,atd,18.71
2022-12-03T05:03:00,atd,21.23
2022-12-03T05:04:00,atd,21.62
2022-12-03T05:05:00,atd,19.87
2022-12-03T05:06:00,atd,20.11
2022-12-03T05:07:00,atd,18.77
2022-12-03T05:08:00,atd,16.88
2022-12-03T05:09:00,atd,21.95
2022-12-03T05:10:00,atd,26.71
2022-12-03T05:11:00,atd,23.92
2022-12-03T05:12:00,atd,18.18
2022-12-03T05:13:00,atd,19.67
2022-12-03T05:14:00,atd,19.63
2022-12-03T05:15:00,atd,18.29
2022-12-03T05:16:00,atd,18.10
2022-12-03T05:17:00,atd,15.42
2022-12-03T05:18:00,atd,18.83
2022-12-03T05:19:00,atd,17.59
2022-12-03T05:20:00,atd,18.18
2022-12-03T05:21:00,atd,21.47
2022-12-03T05:22:00,atd,16.00
2022-12-03T05:23:00,atd,18.01
2022-12-03T05:24:00,atd,18.79
2022-12-03T05:25:00,atd,21.25
2022-12-03T05:26:00,atd,26.07
2022-12-03T05:27:00,atd,22.24
2022-12-03T05:28:00,atd,23.44
2022-12-03T05:29:00,atd,21.74
2022-12-03T05:30:00,atd,22.52
2022-12-03T05:31:00,atd,20.17
2022-12-03T05:32:00,atd,18.52
2022-12-03T05:33:00,atd,18.44
2022-12-03T05:34:00,atd,20.89
2022-12-03T05:35:00,atd,25.42
2022-12-03T05:36:00,atd,19.99
2022-12-03T05:37:00,atd,19.19
2022-12-03T05:38:00,atd,19.65
2022-12-03T05:39:00,atd,32.95
2022-12-03T05:40:00,atd,21.50
2022-12-03T05:41:00,atd,21.17
2022-12-03T05:42:00,atd,21.19
2022-12-03T05:43:00,atd,21.35
2022-12-03T05:44:00,atd,22.11
2022-12-03T05:45:00,atd,21.58
2022-12-03T05:46:00,atd,17.52
2022-12-03T05:47:00,atd,20.72
2022-12-03T05:48:00,atd,17.61
2022-12-03T05:49:00,atd,19.94
2022-12-03T05:50:00,atd,21.53
2022-12-03T05:51:00,atd,19.99
2022-12-03T05:52:00,atd,21.19
2022-12-03T05:53:00,atd,20.23
2022-12-03T05:54:00,atd,21.19
2022-12-03T05:55:00,atd,21.02
2022-12-03T05:56:00,atd,22.60
2022-12-03T05:57:00,atd,23.96
2022-12-03T05:58:00,atd,22.90
2022-12-03T05:59:00,atd,37.57
2022-12-03T06:00:00,atd,19.57
2022-12-03T06:01:00,atd,25.10
2022-12-03T06:02:00,atd,26.49
2022-12-03T06:03:00,atd,32.14
2022-12-03T06:04:00,atd,31.71
2022-12-03T06:05:00,atd,29.08
2022-12-03T06:06:00,atd,30.88
2022-12-03T06:07:00,atd,29.09
2022-12-03T06:08:00,atd,33.29
2022-12-03T06:09:00,atd,30.43
2022-12-03T06:10:00,atd,28.78
2022-12-03T06:11:00,atd,32.54
2022-12-03T06:12:00,atd,32.70
2022-12-03T06:13:00,atd,31.06
2022-12-03T06:14:00,atd,34.03
2022-12-03T06:15:00,atd,33.46
2022-12-03T06:16:00,atd,31.28
2022-12-03T06:17:00,atd,31.54
2022-12-03T06:18:00,atd,34.91
2022-12-03T06:19:00,atd,35.92
2022-12-03T06:20:00,atd,35.12
2022-12-03T06:21:00,atd,32.00
2022-12-03T06:22:00,atd,38.48
2022-12-03T06:23:00,atd,33.08
2022-12-03T06:24:00,atd,35.80
2022-12-03T06:25:00,atd,34.89
2022-12-03T06:26:00,atd,32.63
2022-12-03T06:27:00,atd,31.39
2022-12-03T06:28:00,atd,29.91
2022-12-03T06:29:00,atd,27.32
2022-12-03T06:30:00,atd,32.13
2022-12-03T06:31:00,atd,29.81
2022-12-03T06:32:00,atd,31.32
2022-12-03T06:33:00,atd,33.59
2022-12-03T06:34:00,atd,42.36
2022-12-03T06:35:00,atd,30.88
2022-12-03T06:36:00,atd,28.47
2022-12-03T06:37:00,atd,30.06
2022-12-03T06:38:00,atd,32.78
2022-12-03T06:39:00,atd,28.54
2022-12-03T06:40:00,atd,27.75
2022-12-03T06:41:00,atd,27.90
2022-12-03T06:42:00,atd,29.74
2022-12-03T06:43:00,atd,31.46
2022-12-03T06:44:00,atd,28.65
2022-12-03T06:45:00,atd,28.79
2022-12-03T06:46:00,atd,33.81
2022-12-03T06:47:00,atd,29.48
2022-12-03T06:48:00,atd,28.71
2022-12-03T06:49:00,atd,29.04
2022-12-03T06:50:00,atd,28.38
2022-12-03T06:51:00,atd,25.92
2022-12-03T06:52:00,atd,28.42
2022-12-03T06:53:00,atd,28.11
2022-12-03T06:54:00,atd,28.41
2022-12-03T06:55:00,atd,28.62
2022-12-03T06:56:00,atd,26.02
2022-12-03T06:57:00,atd,31.22
2022-12-03T06:58:00,atd,31.35
2022-12-03T06:59:00,atd,29.57
2022-12-03T07:00:00,atd,29.36
2022-12-03T07:01:00,atd,25.97
2022-12-03T07:02:00,atd,26.62
2022-12-03T07:03:00,atd,35.25
2022-12-03T07:04:00,atd,35.30
2022-12-03T07:05:00,atd,36.90
2022-12-03T07:06:00,atd,35.44
2022-12-03T07:07:00,atd,25.88
2022-12-03T07:08:00,atd,40.40
2022-12-03T07:09:00,atd,36.15
2022-12-03T07:10:00,atd,37.04
2022-12-03T07:11:00,atd,37.74
2022-12-03T07:12:00,atd,40.93
2022-12-03T07:13:00,atd,26.76
2022-12-03T07:14:00,atd,27.75
2022-12-03T07:15:00,atd,25.26
2022-12-03T07:16:00,atd,25.86
2022-12-03T07:17:00,atd,25.60
2022-12-03T07:18:00,atd,27.85
2022-12-03T07:19:00,atd,25.34
2022-12-03T07:20:00,atd,25.34
2022-12-03T07:21:00,atd,27.95
2022-12-03T07:22:00,atd,24.77
2022-12-03T07:23:00,atd,24.79
2022-12-03T07:24:00,atd,23.12
2022-12-03T07:25:00,atd,23.10
2022-12-03T07:26:00,atd,33.76
2022-12-03T07:27:00,atd,26.10
2022-12-03T07:28:00,atd,29.24
2022-12-03T07:29:00,atd,27.31
2022-12-03T07:30:00,atd,24.61
2022-12-03T07:31:00,atd,25.14
2022-12-03T07:32:00,atd,25.31
2022-12-03T07:33:00,atd,25.26
2022-12-03T07:34:00,atd,27.20
2022-12-03T07:35:00,atd,27.73
2022-12-03T07:36:00,atd,27.52
2022-12-03T07:37:00,atd,26.08
2022-12-03T07:38:00,atd,25.38
2022-12-03T07:39:00,atd,21.54
2022-12-03T07:40:00,atd,22.91
2022-12-03T07:41:00,atd,21.80
2022-12-03T07:42:00,atd,24.98
2022-12-03T07:43:00,atd,35.58
2022-12-03T07:44:00,atd,24.53
2022-12-03T07:45:00,atd,24.69
2022-12-03T07:46:00,atd,25.12
2022-12-03T07:47:00,atd,21.76
2022-12-03T07:48:00,atd,20.94
2022-12-03T07:49:00,atd,24.05
2022-12-03T07:50:00,atd,22.36
2022-12-03T07:51:00,atd,24.46
2022-12-03T07:52:00,atd,24.99
2022-12-03T07:53:00,atd,23.87
2022-12-03T07:54:00,atd,25.50
2022-12-03T07:55:00,atd,21.25
2022-12-03T07:56:00,atd,21.18
2022-12-03T07:57:00,atd,23.76
2022-12-03T07:58:00,atd,23.64
2022-12-03T07:59:00,atd,21.34
2022-12-03T08:00:00,atd,34.93
2022-12-03T08:01:00,atd,19.46
2022-12-03T08:02:00,atd,24.63
2022-12-03T08:03:00,atd,23.39
2022-12-03T08:04:00,atd,21.54
2022-12-03T08:05:00,atd,23.28
2022-12-03T08:06:00,atd,24.82
2022-12-03T08:07:00,atd,24.46
2022-12-03T08:08:00,atd,25.41
2022-12-03T08:09:00,atd,24.94
2022-12-03T08:10:00,atd,24.48
2022-12-03T08:11:00,atd,20.61
2022-12-03T08:12:00,atd,24.47
2022-12-03T08:13:00,atd,20.57
2022-12-03T08:14:00,atd,22.83
2022-12-03T08:15:00,atd,23.16
2022-12-03T08:16:00,atd,23.30
2022-12-03T08:17:00,atd,34.95
2022-12-03T08:18:00,atd,24.57
2022-12-03T08:19:00,atd,22.91
2022-12-03T08:20:00,atd,23.10
2022-12-03T08:21:00,atd,22.25
2022-12-03T08:22:00,atd,25.60
2022-12-03T08:23:00,atd,24.66
2022-12-03T08:24:00,atd,27.72
2022-12-03T08:25:00,atd,25.66
2022-12-03T08:26:00,atd,25.79
2022-12-03T08:27:00,atd,24.50
2022-12-03T08:28:00,atd,25.08
2022-12-03T08:29:00,atd,22.72
2022-12-03T08:30:00,atd,23.99
2022-12-03T08:31:00,atd,23.65
2022-12-03T08:32:00,atd,22.76
2022-12-03T08:33:00,atd,21.66
2022-12-03T08:34:00,atd,37.94
2022-12-03T08:35:00,atd,26.30
2022-12-03T08:36:00,atd,23.73
2022-12-03T08:37:00,atd,22.62
2022-12-03T08:38:00,atd,23.33
2022-12-03T08:39:00,atd,25.93
2022-12-03T08:40:00,atd,27.15
2022-12-03T08:41:00,atd,23.13
2022-12-03T08:42:00,atd,23.72
2022-12-03T08:43:00,atd,21.11
2022-12-03T08:44:00,atd,23.01
2022-12-03T08:45:00,atd,21.79
2022-12-03T08:46:00,atd,34.32
2022-12-03T08:47:00,atd,21.74
2022-12-03T08:48:00,atd,34.43
2022-12-03T08:49:00,atd,23.09
2022-12-03T08:50:00,atd,35.84
2022-12-03T08:51:00,atd,23.93
2022-12-03T08:52:00,atd,36.97
2022-12-03T08:53:00,atd,23.76
2022-12-03T08:54:00,atd,25.09
2022-12-03T08:55:00,atd,27.02
2022-12-03T08:56:00,atd,25.26
2022-12-03T08:57:00,atd,25.13
2022-12-03T08:58:00,atd,25.42
2022-12-03T08:59:00,atd,23.32
2022-12-03T09:00:00,atd,22.91
2022-12-03T09:01:00,atd,23.63
2022-12-03T09:02:00,atd,21.64
2022-12-03T09:03:00,atd,21.41
2022-12-03T09:04:00,atd,23.50
2022-12-03T09:05:00,atd,23.37
2022-12-03T09:06:00,atd,23.56
2022-12-03T09:07:00,atd,21.32
2022-12-03T09:08:00,atd,21.07
2022-12-03T09:09:00,atd,38.50
2022-12-03T09:10:00,atd,23.01
2022-12-03T09:11:00,atd,24.62
2022-12-03T09:12:00,atd,27.39
2022-12-03T09:13:00,atd,29.02
2022-12-03T09:14:00,atd,25.48
2022-12-03T09:15:00,atd,23.51
2022-12-03T09:16:00,atd,24.39
2022-12-03T09:17:00,atd,39.46
2022-12-03T09:18:00,atd,22.05
2022-12-03T09:19:00,atd,21.29
2022-12-03T09:20:00,atd,22.17
2022-12-03T09:21:00,atd,24.48
2022-12-03T09:22:00,atd,19.39
2022-12-03T09:23:00,atd,23.57
2022-12-03T09:24:00,atd,20.32
2022-12-03T09:25:00,atd,32.88
2022-12-03T09:26:00,atd,21.77
2022-12-03T09:27:00,atd,25.09
2022-12-03T09:28:00,atd,23.98
2022-12-03T09:29:00,atd,25.19
2022-12-03T09:30:00,atd,24.51
2022-12-03T09:31:00,atd,21.02
2022-12-03T09:32:00,atd,22.01
2022-12-03T09:33:00,atd,22.05
2022-12-03T09:34:00,atd,24.58
2022-12-03T09:35:00,atd,25.95
2022-12-03T09:36:00,atd,26.24
2022-12-03T09:37:00,atd,21.97
2022-12-03T09:38:00,atd,24.90
2022-12-03T09:39:00,atd,21.90
2022-12-03T09:40:00,atd,22.21
2022-12-03T09:41:00,atd,36.61
2022-12-03T09:42:00,atd,18.25
2022-12-03T09:43:00,atd,24.07
2022-12-03T09:44:00,atd,24.61
2022-12-03T09:45:00,atd,23.99
2022-12-03T09:46:00,atd,26.05
2022-12-03T09:47:00,atd,21.81
2022-12-03T09:48:00,atd,23.63
2022-12-03T09:49:00,atd,24.60
2022-12-03T09:50:00,atd,19.92
2022-12-03T09:51:00,atd,19.99
2022-12-03T09:52:00,atd,25.44
2022-12-03T09:53:00,atd,31.48
2022-12-03T09:54:00,atd,21.94
2022-12-03T09:55:00,atd,25.46
2022-12-03T09:56:00,atd,28.15
2022-12-03T09:57:00,atd,22.11
2022-12-03T09:58:00,atd,34.83
2022-12-03T09:59:00,atd,25.26
2022-12-03T10:00:00,atd,25.99
2022-12-03T10:01:00,atd,26.28
2022-12-03T10:02:00,atd,25.39
2022-12-03T10:03:00,atd,35.66
2022-12-03T10:04:00,atd,31.96
2022-12-03T10:05:00,atd,33.71
2022-12-03T10:06:00,atd,30.73
2022-12-03T10:07:00,atd,27.78
2022-12-03T10:08:00,atd,21.73
2022-12-03T10:09:00,atd,22.95
2022-12-03T10:10:00,atd,21.47
2022-12-03T10:11:00,atd,20.90
2022-12-03T10:12:00,atd,21.84
2022-12-03T10:13:00,atd,21.30
2022-12-03T10:14:00,atd,21.62
2022-12-03T10:15:00,atd,30.88
2022-12-03T10:16:00,atd,22.05
2022-12-03T10:17:00,atd,22.89
2022-12-03T10:18:00,atd,28.68
2022-12-03T10:19:00,atd,28.83
2022-12-03T10:20:00,atd,26.69
2022-12-03T10:21:00,atd,27.28
2022-12-03T10:22:00,atd,24.48
2022-12-03T10:23:00,atd,31.79
2022-12-03T10:24:00,atd,26.47
2022-12-03T10:25:00,atd,28.99
2022-12-03T10:26:00,atd,25.07
2022-12-03T10:27:00,atd,23.22
2022-12-03T10:28:00,atd,23.07
2022-12-03T10:29:00,atd,23.57
2022-12-03T10:30:00,atd,24.82
2022-12-03T10:31:00,atd,24.91
2022-12-03T10:32:00,atd,32.03
2022-12-03T10:33:00,atd,22.51
2022-12-03T10:34:00,atd,24.04
2022-12-03T10:35:00,atd,24.41
2022-12-03T10:36:00,atd,24.05
2022-12-03T10:37:00,atd,23.09
2022-12-03T10:38:00,atd,22.00
2022-12-03T10:39:00,atd,22.79
2022-12-03T10:40:00,atd,21.89
2022-12-03T10:41:00,atd,23.25
2022-12-03T10:42:00,atd,23.97
2022-12-03T10:43:00,atd,21.85
2022-12-03T10:44:00,atd,23.94
2022-12-03T10:45:00,atd,21.73
2022-12-03T10:46:00,atd,20.30
2022-12-03T10:47:00,atd,22.57
2022-12-03T10:48:00,atd,37.20
2022-12-03T10:49:00,atd,23.39
2022-12-03T10:50:00,atd,24.21
2022-12-03T10:51:00,atd,22.72
2022-12-03T10:52:00,atd,18.11
2022-12-03T10:53:00,atd,23.05
2022-12-03T10:54:00,atd,20.05
2022-12-03T10:55:00,atd,20.09
2022-12-03T10:56:00,atd,24.53
2022-12-03T10:57:00,atd,23.20
2022-12-03T10:58:00,atd,24.69
2022-12-03T10:59:00,atd,23.05
2022-12-03T11:00:00,atd,20.27
2022-12-03T11:01:00,atd,22.66
2022-12-03T11:02:00,atd,19.61
2022-12-03T11:03:00,atd,22.73
2022-12-03T11:04:00,atd,23.65
2022-12-03T11:05:00,atd,26.05
2022-12-03T11:06:00,atd,23.51
2022-12-03T11:07:00,atd,24.48
2022-12-03T11:08:00,atd,21.35
2022-12-03T11:09:00,atd,21.87
2022-12-03T11:10:00,atd,21.25
2022-12-03T11:11:00,atd,21.07
2022-12-03T11:12:00,atd,22.07
2022-12-03T11:13:00,atd,26.62
2022-12-03T11:14:00,atd,23.00
2022-12-03T11:15:00,atd,23.84
2022-12-03T11:16:00,atd,21.82
2022-12-03T11:17:00,atd,22.99
2022-12-03T11:18:00,atd,20.32
2022-12-03T11:19:00,atd,22.33
2022-12-03T11:20:00,atd,23.09
2022-12-03T11:21:00,atd,22.89
2022-12-03T11:22:00,atd,36.65
2022-12-03T11:23:00,atd,23.74
2022-12-03T11:24:00,atd,24.94
2022-12-03T11:25:00,atd,22.30
2022-12-03T11:26:00,atd,23.58
2022-12-03T11:27:00,atd,23.17
2022-12-03T11:28:00,atd,25.79
2022-12-03T11:29:00,atd,21.04
2022-12-03T11:30:00,atd,20.43
2022-12-03T11:31:00,atd,26.63
2022-12-03T11:32:00,atd,27.19
2022-12-03T11:33:00,atd,38.56
2022-12-03T11:34:00,atd,36.68
2022-12-03T11:35:00,atd,38.00
2022-12-03T11:36:00,atd,39.12
2022-12-03T11:37:00,atd,39.30
2022-12-03T11:38:00,atd,49.96
2022-12-03T11:39:00,atd,35.38
2022-12-03T11:40:00,atd,36.19
2022-12-03T11:41:00,atd,35.58
2022-12-03T11:42:00,atd,32.25
2022-12-03T11:43:00,atd,33.75
2022-12-03T11:44:00,atd,32.83
2022-12-03T11:45:00,atd,32.39
2022-12-03T11:46:00,atd,34.74
2022-12-03T11:47:00,atd,32.39
2022-12-03T11:48:00,atd,34.02
2022-12-03T11:49:00,atd,35.34
2022-12-03T11:50:00,atd,32.15
2022-12-03T11:51:00,atd,36.57
2022-12-03T11:52:00,atd,38.11
2022-12-03T11:53:00,atd,36.12
2022-12-03T11:54:00,atd,35.89
2022-12-03T11:55:00,atd,45.51
2022-12-03T11:56:00,atd,47.91
2022-12-03T11:57:00,atd,46.50
2022-12-03T11:58:00,atd,51.80
2022-12-03T11:59:00,atd,31.79
2022-12-03T12:00:00,atd,32.34
2022-12-03T12:01:00,atd,35.38
2022-12-03T12:02:00,atd,34.99
2022-12-03T12:03:00,atd,30.77
2022-12-03T12:04:00,atd,34.48
2022-12-03T12:05:00,atd,34.67
2022-12-03T12:06:00,atd,36.50
2022-12-03T12:07:00,atd,35.51
2022-12-03T12:08:00,atd,36.26
2022-12-03T12:09:00,atd,37.32
2022-12-03T12:10:00,atd,33.55
2022-12-03T12:11:00,atd,48.27
2022-12-03T12:12:00,atd,33.93
2022-12-03T12:13:00,atd,37.49
2022-12-03T12:14:00,atd,35.30
2022-12-03T12:15:00,atd,38.31
2022-12-03T12:16:00,atd,39.60
2022-12-03T12:17:00,atd,39.18
2022-12-03T12:18:00,atd,35.02
2022-12-03T12:19:00,atd,34.59
2022-12-03T12:20:00,atd,37.40
2022-12-03T12:21:00,atd,34.66
2022-12-03T12:22:00,atd,33.67
2022-12-03T12:23:00,atd,36.43
2022-12-03T12:24:00,atd,37.19
2022-12-03T12:25:00,atd,34.57
2022-12-03T12:26:00,atd,34.84
2022-12-03T12:27:00,atd,33.75
2022-12-03T12:28:00,atd,33.92
2022-12-03T12:29:00,atd,33.92
2022-12-03T12:30:00,atd,32.16
2022-12-03T12:31:00,atd,31.50
2022-12-03T12:32:00,atd,29.05
2022-12-03T12:33:00,atd,35.91
2022-12-03T12:34:00,atd,33.38
2022-12-03T12:35:00,atd,36.04
2022-12-03T12:36:00,atd,34.67
2022-12-03T12:37:00,atd,34.07
2022-12-03T12:38:00,atd,31.83
2022-12-03T12:39:00,atd,33.31
2022-12-03T12:40:00,atd,33.91
2022-12-03T12:41:00,atd,36.02
2022-12-03T12:42:00,atd,33.96
2022-12-03T12:43:00,atd,33.72
2022-12-03T12:44:00,atd,32.52
2022-12-03T12:45:00,atd,41.01
2022-12-03T12:46:00,atd,32.21
2022-12-03T12:47:00,atd,29.33
2022-12-03T12:48:00,atd,34.19
2022-12-03T12:49:00,atd,34.55
2022-12-03T12:50:00,atd,36.57
2022-12-03T12:51:00,atd,34.66
2022-12-03T12:52:00,atd,30.82
2022-12-03T12:53:00,atd,31.38
2022-12-03T12:54:00,atd,34.86
2022-12-03T12:55:00,atd,33.57
2022-12-03T12:56:00,atd,35.35
2022-12-03T12:57:00,atd,34.85
2022-12-03T12:58:00,atd,35.09
2022-12-03T12:59:00,atd,34.44
2022-12-03T13:00:00,atd,37.07
2022-12-03T13:01:00,atd,32.11
2022-12-03T13:02:00,atd,44.86
2022-12-03T13:03:00,atd,36.66
2022-12-03T13:04:00,atd,34.39
2022-12-03T13:05:00,atd,33.00
2022-12-03T13:06:00,atd,33.25
2022-12-03T13:07:00,atd,33.94
2022-12-03T13:08:00,atd,36.17
2022-12-03T13:09:00,atd,45.74
2022-12-03T13:10:00,atd,40.02
2022-12-03T13:11:00,atd,41.53
2022-12-03T13:12:00,atd,41.01
2022-12-03T13:13:00,atd,36.12
2022-12-03T13:14:00,atd,38.90
2022-12-03T13:15:00,atd,35.59
2022-12-03T13:16:00,atd,36.33
2022-12-03T13:17:00,atd,38.68
2022-12-03T13:18:00,atd,38.01